Weather History for Hamilton, OH

Change the Weather History Date:

Wednesday, January 1, 2014

  Actual Average (KCVG) Record (KCVG)
Temperature  
Mean Temperature 34 °F 31 °F  
Max Temperature 48 °F 39 °F 69 °F (1876)
Min Temperature 21 °F 24 °F -4 °F (1968)
Degree Days  
Heating Degree Days 30 34  
Month to date heating degree days 34  
Since 1 July heating degree days 1953  
Cooling Degree Days 0 0  
Month to date cooling degree days 0  
Year to date cooling degree days 0  
Moisture  
Dew Point 24 °F    
Average Humidity 73    
Maximum Humidity 89    
Minimum Humidity 39    
Precipitation  
Precipitation 0.00 in 0.11 in 1.54 in (1948)
Month to date precipitation 0.11  
Year to date precipitation 0.11  
Snow  
Snow 0.00 in 0.20 in 7.60 in (1964)
Month to date snowfall 0.2  
Since 1 July snowfall 5.8  
Snow Depth -    
Sea Level Pressure  
Sea Level Pressure 30.20 in    
Wind  
Wind Speed 3 mph (ESE)    
Max Wind Speed 8 mph    
Max Gust Speed -    
Visibility 10 miles    
Events      
T = Trace of Precipitation, MM = Missing Value Source: NWS Daily Summary

Daily Weather History Graph

Daily Weather History Graph

Search for Another Location

Airport:

Trip Planner

Search our weather history database for the weather conditions in past years. The results will help you decide how hot, cold, wet, or windy it might be!

Date:

Astronomy

Jan. 01, 2014 Rise Set
Actual Time 7:58 AM EST 5:25 PM EST
Civil Twilight 7:28 AM EST 5:55 PM EST
Nautical Twilight 6:54 AM EST 6:29 PM EST
Astronomical Twilight 6:21 AM EST 7:01 PM EST
Moon 7:48 AM EST (1/1) 6:09 PM EST (1/1)
Length of Visible Light 10h 27m
Length of Day
9h 27m
New Moon, 0% of the Moon is Illuminated
Jan 1
New Moon
Jan 7
First Quarter
Jan 15
Full
Jan 24
Last Quarter
Jan 30
New

Hourly Weather History & Observations

Time (EST) Temp. Windchill Dew Point Humidity Pressure Visibility Wind Dir Wind Speed Gust Speed Precip Events Conditions
12:53 AM 26.1 °F - 19.0 °F 75% 30.32 in 10.0 mi Calm Calm - N/A   Clear
1:53 AM 21.9 °F 17.2 °F 18.0 °F 85% 30.31 in 10.0 mi SE 3.5 mph - N/A   Clear
2:53 AM 21.9 °F 17.2 °F 18.0 °F 85% 30.32 in 10.0 mi East 3.5 mph - N/A   Clear
3:53 AM 21.9 °F 17.2 °F 19.0 °F 89% 30.30 in 10.0 mi East 3.5 mph - N/A   Clear
4:53 AM 21.9 °F 15.7 °F 19.0 °F 89% 30.28 in 10.0 mi ESE 4.6 mph - N/A   Clear
5:53 AM 21.0 °F 16.2 °F 18.0 °F 88% 30.28 in 10.0 mi ESE 3.5 mph - N/A   Clear
6:53 AM 21.0 °F 16.2 °F 18.0 °F 88% 30.29 in 10.0 mi East 3.5 mph - N/A   Clear
7:53 AM 23.0 °F 18.4 °F 19.0 °F 85% 30.28 in 10.0 mi East 3.5 mph - N/A   Clear
8:53 AM 26.1 °F - 21.9 °F 84% 30.29 in 10.0 mi Calm Calm - N/A   Clear
9:53 AM 30.9 °F 27.5 °F 24.1 °F 76% 30.28 in 10.0 mi Variable 3.5 mph - N/A   Clear
10:53 AM 37.0 °F 32.4 °F 26.1 °F 65% 30.27 in 10.0 mi South 5.8 mph - N/A   Clear
11:53 AM 39.9 °F 37.8 °F 26.1 °F 58% 30.24 in 10.0 mi Variable 3.5 mph - N/A   Clear
12:53 PM 39.9 °F 37.8 °F 27.0 °F 60% 30.20 in 10.0 mi ESE 3.5 mph - N/A   Clear
1:53 PM 46.9 °F - 27.0 °F 46% 30.17 in 10.0 mi SW 4.6 mph - N/A   Clear
2:53 PM 48.0 °F - 24.1 °F 39% 30.14 in 10.0 mi SSW 8.1 mph - N/A   Clear
3:53 PM 46.0 °F - 24.1 °F 42% 30.13 in 10.0 mi Calm Calm - N/A   Clear
4:53 PM 42.1 °F 39.2 °F 28.0 °F 58% 30.13 in 10.0 mi NW 4.6 mph - N/A   Clear
5:53 PM 37.0 °F - 28.0 °F 70% 30.13 in 10.0 mi Calm Calm - N/A   Clear
6:53 PM 36.0 °F - 28.0 °F 73% 30.13 in 10.0 mi Calm Calm - N/A   Mostly Cloudy
7:53 PM 35.1 °F - 28.0 °F 76% 30.12 in 10.0 mi Calm Calm - N/A   Clear
8:53 PM 35.1 °F - 28.0 °F 76% 30.10 in 10.0 mi Calm Calm - N/A   Overcast
9:53 PM 34.0 °F - 28.0 °F 79% 30.09 in 10.0 mi Calm Calm - N/A   Overcast
10:53 PM 36.0 °F 31.1 °F 28.9 °F 76% 30.07 in 10.0 mi North 5.8 mph - N/A   Overcast
11:53 PM 34.0 °F 29.8 °F 28.9 °F 82% 30.05 in 9.0 mi NNE 4.6 mph - N/A   Overcast